Regional Weather Roundup
Issued by NWS

Current Version | Previous Version | Text Only | Print | Product List | Glossary On
Versions: 1 2 3 4 5 6 7 8 9 10 11 12 13 14 15 16 17 18 19 20 21 22 23 24 25 26 27 28 29 30 31 32 33 34 35 36 37 38 39 40 41 42 43 44 45 46 47 48 49 50
000
ASUS44 KEWX 202310
RWRTX
SOUTH TEXAS REGIONAL WEATHER ROUNDUP
NATIONAL WEATHER SERVICE AUSTIN/SAN ANTONIO TX
500 PM CST SAT DEC 20 2014

NOTE: "FAIR" INDICATED FEW OR NO CLOUDS BELOW 12,000 FEET WITH NO
SIGNIFICANT WEATHER AND/OR OBSTRUCTIONS TO VISIBILITY.

* - THESE STATIONS ARE NOT NWS OR FAA STATIONS...AND ARE NOT SUBJECT
    TO NWS AND FAA QUALITY CONTROL.

TXZ171-172-183>190-210000-
TEXAS HILL COUNTRY AND EDWARDS PLATEAU

CITY           SKY/WX    TMP DP  RH WIND       PRES   REMARKS
JUNCTION       CLEAR     55  45  68 NE7       30.10S
*LLANO         PTCLDY    50  43  76 SE3       30.17S
BURNET         CLOUDY    49  41  74 E9        30.15F WCI  45
*HORSESHOE BAY CLOUDY    50  41  71 E3        30.15R
*KERRVILLE     CLEAR     56  44  64 SE8       30.12R
*FREDERICKSBRG CLEAR     52  41  65 E5        30.12S
*ROCKSPRINGS   CLEAR     57  46  67 S8        30.10S
*BOERNE STAGE  PTCLDY    55  41  58 E6        30.14S
*CASTROVILLE   PTCLDY    56  44  62 SE12      30.15R
HONDO          PTCLDY    58  45  62 SE9       30.14R
*UVALDE        PTCLDY    49  42  78 S8        30.13S WCI  45
DEL RIO        CLOUDY    58  47  66 SE14      30.08S
LAUGHLIN AFB   NOT AVBL
CARRIZO SPRGS  CLOUDY    52  45  76 SE5       30.13S
$$

TXZ173-191>194-202-209-217>225-228-210000-
CENTRAL AND SOUTH CENTRAL TEXAS

CITY           SKY/WX    TMP DP  RH WIND       PRES   REMARKS
GEORGETOWN     CLOUDY    52  45  76 NE5       30.14R
AUSTIN/BERGSTM CLOUDY    53  46  77 NE9       30.15R
AUSTIN/MABRY   CLOUDY    53  46  77 VRB3      30.16R
*AUSTIN/EXEC   CLOUDY    52  46  82 NE7       30.16R
*LAGO VISTA    CLOUDY    51  44  77 E3        30.15R
SAN MARCOS     CLOUDY    54  45  71 E7        30.15S
NEW BRAUNFELS  CLOUDY    55  45  68 NE5       30.14S
RANDOLPH AFB   CLOUDY    53  44  72 NE8       30.15R
PT SAN ANTONIO PTCLDY    55  45  69 E10       30.12R
SAN ANTONIO    MOCLDY    55  45  68 E10       30.14R
STINSON FIELD  CLOUDY    55  45  68 E8        30.13R
*PLEASANTON    CLOUDY    55  45  69 NE6       30.15S
*LA GRANGE     CLOUDY    55  50  84 NE3       30.14R
*GIDDINGS      CLOUDY    52  47  83 N5        30.19S
*GONZALES      NOT AVBL
$$

TXZ163>164-176>182-195>201-210>213-226-227-235-210000-
SOUTHEAST TEXAS

CITY           SKY/WX    TMP DP  RH WIND       PRES   REMARKS
COLLEGE STN    CLOUDY    51  47  86 NE6       30.17R
*BRYAN         CLOUDY    50  47  87 NE5       30.18S WCI  49
*CALDWELL      CLOUDY    52  48  87 NE5       30.19S
*CROCKETT      CLOUDY    54  48  82 NE6       30.20S
*BRENHAM       CLOUDY    53  49  86 E5        30.16F
HUNTSVILLE     CLOUDY    51  46  83 CALM      30.16F
CONROE         CLOUDY    52  45  77 N5        30.17R
HOUSTON BUSH   CLOUDY    52  48  86 N7        30.16R
HOUSTON HOBBY  CLOUDY    54  50  86 N7        30.15R
*HOUSTON SW AP CLOUDY    46  43  91 N3        30.16R
PEARLAND       CLOUDY    55  50  83 E12       30.16S
HOUSTON HOOKS  CLOUDY    53  47  79 N5        30.16R
ELLINGTON FLD  CLOUDY    54  52  94 N5        30.16S
SUGAR LAND     CLOUDY    54  49  83 NE8       30.15R
*HOUSTON EXEC  CLOUDY    54  48  82 N7        30.17R
*CLEVELAND MUN CLOUDY    54  49  85 N3        30.16S
*WHARTON       CLOUDY    54  49  85 N5        30.16S
*COLUMBUS      CLOUDY    53  49  88 N5        30.15S
$$

TXZ214>216-236>238-210000-
THE UPPER TEXAS COAST

CITY           SKY/WX    TMP DP  RH WIND       PRES   REMARKS
*ORANGE        PTCLDY    58  49  72 N6        30.14R
PORT ARTHUR    PTCLDY    57  49  74 N6        30.13R
GALVESTON      CLOUDY    54  51  90 N10       30.15R
ANGLETON       CLOUDY    53  51  93 NE7       30.14S
*BAY CITY        N/A     56  53  92 CALM      30.14S
PALACIOS       CLOUDY    54  50  86 NE7       30.14S
$$

TXZ229>234-239>247-210000-
TEXAS COASTAL BEND AND RIO GRANDE PLAINS

CITY           SKY/WX    TMP DP  RH WIND       PRES   REMARKS
VICTORIA       CLOUDY    56  51  84 NE9       30.15S
*BEEVILLE      CLOUDY    55  49  82 NE3       30.14S
ROCKPORT       CLOUDY    56  49  77 N6        30.14S
*PORT ARANSAS  CLOUDY    55  49  80 NE6       30.14S
*PORT LAVACA   CLOUDY    54  51  92 N8        30.15S
*INGLESIDE     CLOUDY    56  49  78 NE7       30.14S
CORPUS CHRISTI CLOUDY    56  51  84 NE8       30.14R
CORPUS NAS     CLOUDY    56  51  84 NE8       30.14R
*ROBSTOWN      CLOUDY    57  51  82 N6        30.15S
ALICE          CLOUDY    56  49  77 NE3       30.14S
KINGSVILLE NAS CLOUDY    57  52  83 N3        30.15R
COTULLA        CLOUDY    56  45  66 SE8       30.14S
LAREDO         NOT AVBL
$$

TXZ248>255-210000-
DEEP SOUTH TEXAS

CITY           SKY/WX    TMP DP  RH WIND       PRES   REMARKS
BROWNSVILLE    CLOUDY    58  53  84 N12       30.11R
PORT ISABEL    CLOUDY    57  53  86 N16       30.10S
*SOUTH PADRE   CLOUDY    57  55  94 E10       30.10S
HARLINGEN      CLOUDY    57  52  83 N9        30.11S
*HEBBRONVILLE  CLOUDY    53  47  82 NE6       30.14S HAZE
MCALLEN        CLOUDY    58  51  78 N9        30.13S
*WESLACO       CLOUDY    57  50  78 N6        30.13R
FALFURRIAS     CLOUDY    55  49  80 N3        30.14S
EDINBURG       CLOUDY    59  51  74 N8        30.13S
*ZAPATA        CLOUDY    54  48  81 NE3       30.13S
$$

TXZ213>215-236>238-242>244-246-247-251-254-255-210000-
CMAN STATIONS

STATION/POSITION TIME  TEMP    WIND        PRES    WAVE
                       AIR SEA DIR/SP/G            HT/PER
                 (UTC) (F)     (DEG/KT/KT) (MB)    (FT/S)
SABINE PASS      2300   57 59  350/  3/  4 1020.2
SEA RIM ST PARK  2300   56     350/  3/  4 1021.1
NORTH JETTY/GLS  2300   53 61   50/  9/ 11   N/A
EAGLE POINT      2300   53 60   30/  7/  9 1020.7
MORGANS POINT    2300   53      20/  6/  8 1020.8
MISSION/ARANSAS  2200   55      40/  8     1022.0
PORT O`CONNOR    2300           20/  8/ 12   N/A
PORT ARANSAS     2300   55 63   10/ 10/ 11 1020.8
MALAQUITE BEACH  2300   56 66  350/ 10/ 11 1019.9
BAFFIN BAY       2300   56     360/ 11/ 13 1020.5
PORT ISABEL      2300   58 67  350/ 13/ 19 1019.0
$$

GMZ080-GMZ150>470-210000-
OFFSHORE BUOY REPORTS

STATION/POSITION TIME  TEMP    WIND        PRES    WAVE
                       AIR SEA DIR/SP/G            HT/PER
                 (UTC) (F)     (DEG/KT/KT) (MB)    (FT/S)
20 E GALVESTON   2300   55 64   20/ 12/ 14 1020.1    3/ 5
90 E PT ARANSAS  2300   62 72   30/ 14/ 17 1019.5    5/ 7
35 NE PT MANSFLD 2300   63 73   10/ 16/ 21 1018.7    5/ 7
200 E PT ISABEL  2300   69 73   20/ 14/ 16 1016.6    5/ 7
$$



USA.gov is the U.S. government's official web portal to all federal, state and local government web resources and services.